Melton West, Australia

8:57 PM AEST on May 28, 2017 (GMT +1000)
Melton West

Weather History for 94866 - August, 2013

Change the Weather History Date:

Saturday, August 3, 2013

  Actual Average Record
Temperature  
Mean Temperature 46 °F -  
Max Temperature 53 °F 56 °F - ()
Min Temperature 40 °F 41 °F - ()
Degree Days  
Heating Degree Days 18    
Moisture  
Dew Point 40 °F    
Average Humidity 74    
Maximum Humidity 94    
Minimum Humidity 56    
Precipitation  
Precipitation 0.08 in 0.07 in - ()
Sea Level Pressure  
Sea Level Pressure 29.84 in    
Wind  
Wind Speed 14 mph ()    
Max Wind Speed 30 mph    
Max Gust Speed 40 mph    
Visibility 7.7 miles    
Events Rain    
T = Trace of Precipitation, MM = Missing Value Source: Averaged Metar Reports

Daily Weather History Graph

Daily Weather History Graph

Search for Another Location

Airport or City:

Trip Planner

Search our weather history database for the weather conditions in past years. The results will help you decide how hot, cold, wet, or windy it might be!

Date:

Astronomy

Aug. 03, 2013 Rise Set
Actual Time 7:18 AM AEST 5:35 PM AEST
Civil Twilight 6:51 AM AEST 6:03 PM AEST
Nautical Twilight 6:19 AM AEST 6:34 PM AEST
Astronomical Twilight 5:48 AM AEST 7:05 PM AEST
Moon 4:18 AM AEST (8/3) 2:27 PM AEST (8/3)
Length of Visible Light 11h 11m
Length of Day
10h 16m
Waning Crescent, 13% of the Moon is Illuminated
Aug 3
Waning Crescent
Aug 7
New
Aug 14
First Quarter
Aug 21
Full
Aug 28
Last Quarter

Hourly Weather History & Observations

Time (AEST) Temp. Windchill Dew Point Humidity Pressure Visibility Wind Dir Wind Speed Gust Speed Precip Events Conditions
12:00 AM 45 °F - 37 °F 66% 29.95 in 15 mi WNW 11.5 mph - - Rain Light Rain Showers
12:00 AM 44.6 °F 38.8 °F 37.4 °F 76% 29.95 in 6.2 mi WNW 11.5 mph - N/A Rain Light Rain Showers
12:30 AM 44.6 °F 39.2 °F 37.4 °F 76% 29.95 in 6.2 mi NW 10.4 mph - N/A   Mostly Cloudy
1:00 AM 45 °F - 37 °F 64% 29.95 in - WNW 10.4 mph - -  
1:00 AM 44.6 °F 39.2 °F 37.4 °F 76% 29.95 in 6.2 mi WNW 10.4 mph - N/A   Mostly Cloudy
1:30 AM 44.6 °F 38.1 °F 37.4 °F 76% 29.95 in 6.2 mi NW 13.8 mph - N/A   Mostly Cloudy
2:00 AM 44.6 °F 39.2 °F 37.4 °F 76% 29.95 in - NW 10.4 mph - N/A   Clear
2:30 AM 44.6 °F 38.8 °F 37.4 °F 76% 29.92 in 6.2 mi NNW 11.5 mph - N/A   Mostly Cloudy
3:00 AM 44 °F - 36 °F 64% 29.94 in 19 mi NNW 11.5 mph - -   Partly Cloudy
3:00 AM 44.6 °F 38.8 °F 35.6 °F 71% 29.92 in 6.2 mi NNW 11.5 mph - N/A   Scattered Clouds
3:30 AM 42.8 °F 36.6 °F 35.6 °F 76% 29.92 in - NNW 11.5 mph - N/A   Clear
4:00 AM 42 °F - 36 °F 70% 29.93 in - North 13.8 mph - -  
4:00 AM 42.8 °F 35.8 °F 35.6 °F 76% 29.92 in - North 13.8 mph - N/A   Clear
4:30 AM 42.8 °F 35.8 °F 35.6 °F 76% 29.92 in - North 13.8 mph - N/A   Clear
5:00 AM 42.8 °F 35.4 °F 35.6 °F 76% 29.92 in - NNW 15.0 mph - N/A   Clear
5:30 AM 44.6 °F 37.4 °F 35.6 °F 71% 29.92 in 6.2 mi North 16.1 mph - N/A   Mostly Cloudy
6:00 AM 42 °F - 36 °F 74% 29.94 in 19 mi North 17.3 mph - -   Partly Cloudy
6:00 AM 41.0 °F 32.5 °F 37.4 °F 87% 29.92 in 6.2 mi North 17.3 mph - N/A   Scattered Clouds
6:30 AM 41.0 °F 32.8 °F 37.4 °F 87% 29.92 in - North 16.1 mph - N/A   Clear
7:00 AM 40 °F - 37 °F 84% 29.94 in - North 16.1 mph - -  
7:00 AM 41.0 °F 32.8 °F 37.4 °F 87% 29.92 in 6.2 mi North 16.1 mph - N/A   Partly Cloudy
7:30 AM 41.0 °F 32.5 °F 37.4 °F 87% 29.92 in 6.2 mi North 17.3 mph - N/A   Scattered Clouds
8:00 AM 42.8 °F 34.8 °F 37.4 °F 81% 29.92 in 6.2 mi North 17.3 mph - N/A   Scattered Clouds
8:30 AM 44.6 °F 36.9 °F 37.4 °F 76% 29.92 in 6.2 mi North 18.4 mph - N/A   Mostly Cloudy
9:00 AM 47 °F - 39 °F 64% 29.93 in 19 mi North 20.7 mph - -   Partly Cloudy
9:00 AM 46.4 °F 38.7 °F 39.2 °F 76% 29.92 in 6.2 mi North 20.7 mph - N/A   Mostly Cloudy
9:30 AM 48.2 °F - 39.2 °F 71% 29.92 in 6.2 mi North 18.4 mph - N/A   Mostly Cloudy
10:00 AM 51 °F - 40 °F 56% 29.91 in - North 17.3 mph - -  
10:00 AM 51.8 °F - 41.0 °F 67% 29.89 in 6.2 mi North 17.3 mph - N/A   Mostly Cloudy
10:30 AM 53.6 °F - 41.0 °F 62% 29.89 in 6.2 mi North 19.6 mph - N/A   Mostly Cloudy
11:00 AM 50.0 °F - 39.2 °F 66% 29.86 in 6.2 mi North 20.7 mph - N/A   Mostly Cloudy
11:30 AM 53.6 °F - 41.0 °F 62% 29.83 in 6.2 mi North 25.3 mph - N/A   Mostly Cloudy
12:00 PM 51 °F - 42 °F 61% 29.83 in 19 mi North 25.3 mph - -   Partly Cloudy
12:00 PM 51.8 °F - 41.0 °F 67% 29.83 in 6.2 mi North 25.3 mph - N/A   Mostly Cloudy
12:30 PM 50.0 °F - 42.8 °F 76% 29.80 in 6.2 mi North 25.3 mph - N/A   Mostly Cloudy
1:00 PM 51 °F - 42 °F 64% 29.79 in - North 23.0 mph - -  
1:00 PM 51.8 °F - 42.8 °F 71% 29.77 in 6.2 mi North 23.0 mph 34.5 mph N/A   Mostly Cloudy
1:30 PM 51.8 °F - 42.8 °F 71% 29.77 in 6.2 mi NNW 18.4 mph - N/A   Mostly Cloudy
2:00 PM 51.8 °F - 42.8 °F 71% 29.74 in 6.2 mi North 29.9 mph - N/A   Mostly Cloudy
2:24 PM 53.6 °F - 42.8 °F 67% 29.71 in 6.2 mi North 26.5 mph 38.0 mph N/A   Mostly Cloudy
2:30 PM 53.6 °F - 42.8 °F 67% 29.74 in 6.2 mi North 28.8 mph - N/A   Mostly Cloudy
2:42 PM 53.6 °F - 42.8 °F 67% 29.71 in 6.2 mi North 28.8 mph 40.3 mph N/A Rain Light Rain Showers
3:00 PM 53 °F - 44 °F 62% 29.74 in 16 mi North 27.6 mph - -   Mostly Cloudy
3:00 PM 53.6 °F - 44.6 °F 72% 29.71 in 6.2 mi North 27.6 mph - N/A   Mostly Cloudy
3:30 PM 51.8 °F - 44.6 °F 76% 29.71 in 6.2 mi North 23.0 mph - N/A   Mostly Cloudy
4:00 PM 52 °F - 45 °F 69% 29.72 in - North 23.0 mph - -  
4:00 PM 51.8 °F - 44.6 °F 76% 29.71 in - North 23.0 mph - N/A   Unknown
4:30 PM 50.0 °F - 46.4 °F 87% 29.71 in 4.3 mi North 23.0 mph - N/A Rain Light Rain Showers
5:00 PM 50.0 °F - 48.2 °F 94% 29.74 in 3.7 mi NNW 13.8 mph - N/A Rain Light Rain
5:30 PM 50.0 °F - 48.2 °F 94% 29.74 in 4.3 mi NW 10.4 mph - N/A Rain Light Rain
6:00 PM 50 °F - 47 °F 88% 29.75 in 7 mi SSW 4.6 mph - -   Mostly Cloudy
6:00 PM 50.0 °F - 48.2 °F 94% 29.74 in 6.2 mi SSW 4.6 mph - N/A   Partly Cloudy
6:30 PM 50.0 °F - 44.6 °F 82% 29.74 in 6.2 mi NW 9.2 mph - N/A   Scattered Clouds
7:00 PM 49 °F - 44 °F 75% 29.75 in - North 12.7 mph - -  
7:00 PM 48.2 °F - 42.8 °F 82% 29.74 in 6.2 mi North 12.7 mph - N/A   Partly Cloudy
7:30 PM 50.0 °F - 42.8 °F 76% 29.74 in 6.2 mi North 13.8 mph - N/A   Partly Cloudy
8:00 PM 50.0 °F - 42.8 °F 76% 29.74 in 6.2 mi NNW 10.4 mph - N/A   Partly Cloudy
8:30 PM 48.2 °F - 41.0 °F 76% 29.77 in 6.2 mi NW 11.5 mph - N/A   Partly Cloudy
9:00 PM 49 °F - 40 °F 61% 29.78 in 19 mi NNW 12.7 mph - -   Partly Cloudy
9:00 PM 50.0 °F - 39.2 °F 66% 29.77 in 6.2 mi NNW 12.7 mph - N/A   Partly Cloudy
9:30 PM 50.0 °F - 39.2 °F 66% 29.77 in 6.2 mi NW 11.5 mph - N/A   Scattered Clouds
10:00 PM 47 °F - 40 °F 67% 29.79 in - North 11.5 mph - -  
10:00 PM 48.2 °F - 39.2 °F 71% 29.77 in 6.2 mi North 11.5 mph - N/A   Scattered Clouds
10:30 PM 48.2 °F - 39.2 °F 71% 29.77 in 6.2 mi North 10.4 mph - N/A   Mostly Cloudy
11:00 PM 48.2 °F - 41.0 °F 76% 29.80 in 6.2 mi SSW 12.7 mph - N/A   Mostly Cloudy
11:30 PM 46.4 °F 41.5 °F 39.2 °F 76% 29.80 in 6.2 mi West 10.4 mph - N/A   Scattered Clouds